1511841600.91,15217,7.25,72820.0,-8.93,-35.89,-36.07,0,*57
1511841602.16,15218,7.25,72822.5,-8.93,-35.83,-36.01,0,*54
1511841603.37,15219,7.25,72822.5,-8.93,-36.07,-36.19,0,*53
1511841604.63,15220,7.25,72820.8,-8.93,-36.25,-36.25,0,*56
1511841605.89,15221,7.25,72822.8,-8.95,-36.07,-36.37,0,*52
1511841607.11,15222,7.25,72820.3,-8.93,-36.01,-36.01,0,*54
1511841608.32,15223,7.25,72820.8,-8.93,-36.01,-36.19,0,*5C
1511841609.54,15224,7.25,72820.3,-8.93,-35.89,-36.01,0,*51
1511841610.78,15225,7.25,72822.8,-8.93,-36.07,-36.25,0,*53
1511841611.99,15226,7.25,72822.3,-8.93,-36.07,-36.07,0,*50
1511841613.25,15227,7.25,72822.8,-8.91,-36.01,-36.13,0,*50
1511841614.5,15228,7.25,72820.5,-8.91,-36.01,-36.13,0,*5F
1511841615.77,15229,7.25,72820.3,-8.89,-35.95,-35.95,0,*54
1511841617.05,15230,7.25,72818.3,-8.91,-36.13,-36.13,0,*55
1511841618.29,15231,7.25,72822.3,-8.91,-36.01,-36.01,0,*54
1511841619.54,15232,7.25,72820.0,-8.91,-36.01,-36.13,0,*54
1511841620.78,15233,7.25,72824.0,-8.89,-35.89,-36.13,0,*5F
1511841621.99,15234,7.25,72824.8,-8.89,-36.07,-36.19,0,*57
1511841623.26,15235,7.25,72820.8,-8.91,-36.13,-36.37,0,*56
1511841624.49,15236,7.25,72820.8,-8.89,-36.13,-36.31,0,*5A
1511841625.7,15237,7.25,72818.8,-8.89,-36.07,-36.07,0,*5B
1511841626.97,15238,7.25,72822.0,-8.89,-35.95,-36.25,0,*5C
1511841628.21,15239,7.25,72820.3,-8.89,-36.07,-36.13,0,*50
1511841629.46,15240,7.25,72820.0,-8.91,-36.13,-36.31,0,*52
1511841630.69,15241,7.25,72820.3,-8.89,-36.07,-36.13,0,*5F
1511841631.96,15242,7.25,72816.5,-8.89,-36.13,-36.25,0,*5C
1511841633.19,15243,7.25,72820.8,-8.91,-36.31,-36.31,0,*51
1511841634.45,15244,7.25,72822.0,-8.89,-36.25,-36.37,0,*5C
1511841635.68,15245,7.25,72818.5,-8.89,-36.13,-36.31,0,*5E
1511841636.95,15246,7.25,72820.5,-8.89,-36.25,-36.25,0,*5D
1511841638.18,15247,7.25,72818.0,-8.89,-36.13,-36.31,0,*5C
1511841639.41,15248,7.25,72816.5,-8.89,-36.13,-36.31,0,*53
1511841640.65,15249,7.25,72820.3,-8.89,-36.25,-36.31,0,*57
1511841641.92,15250,7.25,72822.3,-8.89,-36.25,-36.25,0,*5A
1511841643.13,15251,7.25,72822.5,-8.89,-36.31,-36.31,0,*5B
1511841644.37,15252,7.25,72822.0,-8.89,-36.31,-36.37,0,*5E
1511841645.65,15253,7.25,72820.8,-8.87,-36.13,-36.25,0,*52
1511841646.92,15254,7.25,72818.0,-8.87,-36.25,-36.31,0,*55
1511841648.21,15255,7.25,72822.3,-8.87,-36.25,-36.25,0,*51
1511841649.5,15256,7.25,72822.0,-8.87,-36.13,-36.25,0,*57
1511841650.79,15257,7.25,72820.3,-8.87,-36.25,-36.37,0,*50
1511841652.05,15258,7.25,72822.8,-8.87,-36.25,-36.31,0,*59
1511841653.32,15259,7.25,72818.8,-8.87,-36.07,-36.13,0,*58
1511841654.56,15260,7.25,72818.3,-8.85,-36.07,-36.25,0,*55
1511841655.83,15261,7.25,72816.0,-8.87,-35.95,-36.01,0,*58
1511841657.09,15262,7.25,72816.8,-8.87,-36.07,-36.13,0,*50
1511841658.39,15263,7.25,72816.5,-8.87,-36.25,-36.25,0,*54
1511841659.66,15264,7.25,72818.5,-8.87,-35.89,-35.95,0,*5E
1511841660.92,15265,7.25,72818.5,-8.87,-35.95,-36.07,0,*5A
1511841662.18,15266,7.25,72818.8,-8.87,-36.07,-36.13,0,*54
1511841663.4,15267,7.25,72822.3,-8.85,-35.89,-35.89,0,*52
1511841664.67,15268,7.25,72820.3,-8.87,-36.25,-36.31,0,*5A
1511841665.88,15269,7.25,72820.0,-8.85,-36.19,-36.07,0,*53
1511841667.12,15270,7.25,72818.0,-8.85,-36.25,-36.31,0,*51
1511841668.36,15271,7.25,72816.8,-8.85,-36.25,-36.31,0,*50
1511841669.59,15272,7.25,72820.0,-8.85,-36.13,-36.19,0,*5C
1511841670.86,15273,7.25,72820.8,-8.85,-36.25,-36.25,0,*57
1511841672.06,15274,7.25,72820.8,-8.83,-36.19,-36.19,0,*56
1511841673.27,15275,7.25,72820.0,-8.85,-36.01,-36.07,0,*57
1511841674.54,15276,7.25,72820.0,-8.85,-35.83,-35.83,0,*52
1511841675.76,15277,7.25,72818.0,-8.85,-35.89,-36.01,0,*50
1511841676.98,15278,7.25,72820.0,-8.85,-35.89,-35.89,0,*5C
1511841678.2,15279,7.25,72820.0,-8.83,-35.71,-35.89,0,*5C
1511841679.47,15280,7.25,72818.0,-8.81,-35.83,-36.01,0,*56
1511841680.7,15281,7.25,72822.8,-8.83,-36.19,-36.25,0,*53
1511841681.92,15282,7.25,72818.8,-8.83,-35.89,-36.01,0,*5C
1511841683.21,15283,7.25,72820.3,-8.81,-36.25,-36.61,0,*5C
1511841684.5,15284,7.25,72820.8,-8.81,-36.25,-36.25,0,*5B
1511841685.77,15285,7.25,72818.0,-8.81,-36.25,-36.31,0,*5F
1511841687.01,15286,7.25,72822.8,-8.83,-36.25,-36.43,0,*5B
1511841688.22,15287,7.25,72816.3,-8.83,-36.19,-36.31,0,*50
1511841689.46,15288,7.25,72816.3,-8.83,-36.25,-36.43,0,*55
1511841690.7,15289,7.25,72816.3,-8.83,-36.25,-36.43,0,*54
1511841691.96,15290,7.25,72816.5,-8.83,-36.25,-36.49,0,*56
1511841693.19,15291,7.25,72822.0,-8.83,-36.43,-36.49,0,*57
1511841694.43,15292,7.25,72820.3,-8.83,-36.43,-36.61,0,*5E
1511841695.67,15293,7.25,72818.8,-8.83,-36.61,-36.67,0,*59
1511841696.93,15294,7.25,72818.0,-8.83,-36.49,-36.61,0,*52
1511841698.17,15295,7.25,72816.8,-8.83,-36.43,-36.61,0,*59
1511841699.41,15296,7.25,72822.0,-8.83,-36.43,-36.61,0,*5A
1511841700.64,15297,7.25,72818.8,-8.83,-36.43,-36.61,0,*5B
1511841701.85,15298,7.25,72816.3,-8.85,-36.31,-36.43,0,*57
1511841703.07,15299,7.25,72822.3,-8.85,-36.31,-36.43,0,*56
1511841704.31,15300,7.25,72822.0,-8.85,-36.43,-36.61,0,*52
1511841705.54,15301,7.25,72822.5,-8.85,-36.31,-36.61,0,*56
1511841706.78,15302,7.25,72816.5,-8.85,-36.31,-36.49,0,*5F
1511841708.01,15303,7.25,72820.3,-8.85,-36.31,-36.49,0,*5E
1511841709.28,15304,7.25,72820.0,-8.85,-36.25,-36.25,0,*56
1511841710.52,15305,7.25,72820.3,-8.85,-36.25,-36.31,0,*52
1511841711.79,15306,7.25,72818.0,-8.85,-36.25,-36.25,0,*54
1511841713.0,15307,7.25,72820.0,-8.85,-36.19,-36.19,0,*55
1511841714.21,15308,7.25,72820.8,-8.85,-36.01,-36.07,0,*5C
1511841715.43,15309,7.25,72818.5,-8.85,-35.89,-36.01,0,*58
1511841716.67,15310,7.25,72816.5,-8.81,-36.01,-35.89,0,*54
1511841717.89,15311,7.25,72822.5,-8.83,-35.71,-35.89,0,*53
1511841719.16,15312,7.25,72818.8,-8.81,-36.25,-36.31,0,*50
1511841720.39,15313,7.25,72820.0,-8.83,-36.25,-36.43,0,*56
1511841721.61,15314,7.25,72816.5,-8.83,-36.31,-36.43,0,*54
1511841722.85,15315,7.25,72818.3,-8.85,-36.31,-36.49,0,*59
1511841724.06,15316,7.25,72818.3,-8.83,-36.31,-36.43,0,*56
1511841725.32,15317,7.25,72818.3,-8.81,-36.43,-36.61,0,*50
1511841726.56,15318,7.25,72820.8,-8.83,-36.31,-36.61,0,*58
1511841727.82,15319,7.25,72818.5,-8.85,-36.49,-36.61,0,*50
1511841729.06,15320,7.25,72822.8,-8.83,-36.61,-36.67,0,*50
1511841730.29,15321,7.25,72820.3,-8.83,-36.43,-36.61,0,*57
1511841731.55,15322,7.25,72820.5,-8.85,-36.61,-36.61,0,*52
1511841732.82,15323,7.25,72818.8,-8.87,-36.49,-36.55,0,*5C
1511841734.04,15324,7.25,72816.0,-8.85,-36.43,-36.67,0,*52
1511841735.28,15325,7.25,72822.0,-8.87,-36.55,-36.73,0,*53
1511841736.52,15326,7.25,72818.3,-8.85,-36.43,-36.61,0,*56
1511841737.75,15327,7.25,72820.0,-8.85,-36.43,-36.49,0,*5D
1511841739.04,15328,7.25,72818.3,-8.87,-36.49,-36.37,0,*53
1511841740.27,15329,7.25,72818.8,-8.85,-36.19,-36.25,0,*56
1511841741.52,15330,7.25,72818.0,-8.87,-36.31,-36.55,0,*51
1511841742.79,15331,7.25,72816.3,-8.87,-36.49,-36.67,0,*5E
1511841744.03,15332,7.25,72822.3,-8.87,-36.55,-36.55,0,*51
1511841745.3,15333,7.25,72818.3,-8.87,-36.37,-36.67,0,*55
1511841746.51,15334,7.25,72816.0,-8.85,-36.31,-36.43,0,*50
1511841747.78,15335,7.25,72818.5,-8.87,-36.37,-36.55,0,*52
1511841748.99,15336,7.25,72816.8,-8.85,-36.31,-36.31,0,*57
1511841750.2,15337,7.25,72816.8,-8.85,-36.19,-36.19,0,*56
1511841751.41,15338,7.25,72820.8,-8.85,-36.07,-36.07,0,*59
1511841752.7,15339,7.25,72818.8,-8.87,-36.13,-36.25,0,*5F
1511841753.91,15340,7.25,72818.3,-8.85,-36.01,-36.19,0,*5F
1511841755.12,15341,7.25,72816.3,-8.85,-36.01,-36.07,0,*51
1511841756.33,15342,7.25,72816.5,-8.85,-36.07,-36.07,0,*54
1511841757.54,15343,7.25,72818.8,-8.85,-36.01,-36.19,0,*5C
1511841758.75,15344,7.25,72816.0,-8.85,-36.01,-36.07,0,*54
1511841759.95,15345,7.25,72816.8,-8.85,-36.19,-36.07,0,*5C
1511841761.17,15346,7.25,72818.8,-8.85,-36.01,-36.01,0,*50
1511841762.38,15347,7.25,72818.8,-8.85,-36.07,-36.19,0,*5E
1511841763.63,15348,7.25,72818.8,-8.85,-35.83,-36.01,0,*57
1511841764.83,15349,7.25,72818.5,-8.85,-36.01,-36.07,0,*59
1511841766.04,15350,7.25,72820.0,-8.85,-36.01,-36.07,0,*51
1511841767.25,15351,7.25,72818.8,-8.85,-36.07,-36.19,0,*59
1511841768.47,15352,7.25,72816.3,-8.85,-36.19,-36.01,0,*5C
1511841769.71,15353,7.25,72820.8,-8.85,-36.25,-36.31,0,*51
1511841770.95,15354,7.25,72820.0,-8.85,-36.25,-36.43,0,*53
1511841772.16,15355,7.25,72816.8,-8.85,-36.01,-36.19,0,*5B
1511841773.37,15356,7.25,72818.8,-8.83,-36.19,-36.31,0,*5D
1511841774.61,15357,7.25,72818.5,-8.85,-36.07,-36.25,0,*50
1511841775.87,15358,7.25,72816.5,-8.81,-36.25,-36.31,0,*5E
1511841777.08,15359,7.25,72818.0,-8.85,-36.19,-36.19,0,*5E
1511841778.32,15360,7.25,72816.0,-8.85,-36.25,-36.31,0,*51
1511841779.56,15361,7.25,72818.3,-8.85,-36.25,-36.31,0,*50
1511841780.8,15362,7.25,72818.3,-8.83,-36.19,-36.25,0,*5F
1511841782.07,15363,7.25,72818.0,-8.83,-36.25,-36.25,0,*51
1511841783.31,15364,7.25,72820.0,-8.83,-36.19,-36.25,0,*59
1511841784.55,15365,7.25,72818.3,-8.83,-36.25,-36.43,0,*57
1511841785.76,15366,7.25,72816.3,-8.83,-36.19,-36.31,0,*5E
1511841787.0,15367,7.25,72820.0,-8.85,-36.25,-36.31,0,*56
1511841788.2,15368,7.25,72816.0,-8.83,-36.19,-36.19,0,*5A
1511841789.44,15369,7.25,72816.0,-8.85,-36.25,-36.43,0,*5D
1511841790.68,15370,7.25,72818.0,-8.85,-36.25,-36.19,0,*5A
1511841791.92,15371,7.25,72818.8,-8.85,-36.25,-36.43,0,*54
1511841793.18,15372,7.25,72814.5,-8.85,-36.25,-36.49,0,*5D
1511841794.43,15373,7.25,72818.0,-8.85,-36.25,-36.43,0,*56
1511841795.63,15374,7.25,72818.3,-8.85,-36.19,-36.19,0,*51
1511841796.84,15375,7.25,72818.5,-8.85,-36.19,-36.31,0,*5A
1511841798.08,15376,7.25,72816.0,-8.85,-36.25,-36.31,0,*56
1511841799.32,15377,7.25,72818.8,-8.85,-36.19,-36.25,0,*5D
1511841800.56,15378,7.25,72816.3,-8.85,-36.19,-36.25,0,*52
1511841801.77,15379,7.25,72816.3,-8.85,-36.01,-36.07,0,*5A
1511841802.98,15380,7.25,72816.5,-8.83,-36.07,-36.07,0,*5C
1511841804.22,15381,7.25,72818.5,-8.85,-36.25,-36.19,0,*54
1511841805.43,15382,7.25,72818.5,-8.85,-36.19,-36.31,0,*52
1511841806.67,15383,7.25,72818.0,-8.85,-36.25,-36.31,0,*5C
1511841807.9,15384,7.25,72820.8,-8.85,-36.19,-36.25,0,*51
1511841809.15,15385,7.25,72822.0,-8.85,-36.25,-36.43,0,*5F
1511841810.38,15386,7.25,72820.8,-8.85,-36.37,-36.43,0,*5F
1511841811.6,15387,7.25,72820.3,-8.85,-36.31,-36.31,0,*5D
1511841812.81,15388,7.25,72818.3,-8.85,-36.07,-36.31,0,*57
1511841814.02,15389,7.25,72816.0,-8.85,-36.07,-36.19,0,*5C
1511841815.29,15390,7.25,72818.8,-8.87,-36.07,-36.25,0,*59
1511841816.49,15391,7.25,72818.3,-8.85,-36.19,-36.19,0,*5A
1511841817.73,15392,7.25,72816.3,-8.85,-36.01,-36.25,0,*5F
1511841818.94,15393,7.25,72812.5,-8.83,-36.01,-36.19,0,*57
1511841820.15,15394,7.25,72816.8,-8.83,-35.89,-36.07,0,*5C
1511841821.4,15395,7.25,72816.3,-8.85,-35.83,-36.01,0,*57
1511841822.67,15396,7.25,72816.5,-8.87,-35.95,-36.01,0,*51
1511841823.88,15397,7.25,72816.8,-8.85,-36.07,-36.19,0,*53
1511841825.11,15398,7.25,72816.8,-8.83,-36.19,-36.25,0,*5A
1511841826.36,15399,7.25,72816.0,-8.83,-36.07,-36.25,0,*54
1511841827.57,15400,7.25,72816.5,-8.83,-36.07,-36.19,0,*5C
1511841828.77,15401,7.25,72822.5,-8.83,-36.07,-36.19,0,*5D
1511841829.98,15402,7.25,72816.5,-8.83,-36.01,-36.07,0,*57
1511841831.2,15403,7.25,72818.3,-8.83,-36.01,-36.01,0,*50
1511841832.44,15404,7.25,72816.3,-8.83,-36.19,-36.25,0,*58
1511841833.7,15405,7.25,72818.8,-8.81,-36.19,-36.25,0,*5B
1511841834.91,15406,7.25,72818.3,-8.83,-36.07,-36.19,0,*5A
1511841836.12,15407,7.25,72818.8,-8.83,-36.19,-36.31,0,*5E
1511841837.33,15408,7.25,72816.5,-8.83,-36.01,-36.19,0,*52
1511841838.54,15409,7.25,72822.3,-8.83,-36.01,-36.07,0,*5C
1511841839.75,15410,7.25,72818.5,-8.83,-36.19,-36.31,0,*58
1511841840.99,15411,7.25,72820.0,-8.83,-36.19,-36.25,0,*5C
1511841842.23,15412,7.25,72818.0,-8.83,-36.25,-36.43,0,*50
1511841843.47,15413,7.25,72818.8,-8.83,-36.25,-36.31,0,*54
1511841844.71,15414,7.25,72818.3,-8.83,-36.25,-36.43,0,*56
1511841845.94,15415,7.25,72818.3,-8.83,-36.31,-36.49,0,*58
1511841847.21,15416,7.25,72818.0,-8.81,-36.19,-36.25,0,*59
1511841848.42,15417,7.25,72818.8,-8.85,-36.19,-36.43,0,*5C
1511841849.66,15418,7.25,72816.8,-8.85,-36.25,-36.31,0,*59
1511841850.89,15419,7.25,72816.5,-8.85,-36.19,-36.25,0,*52
1511841852.13,15420,7.25,72818.3,-8.85,-36.25,-36.43,0,*57
1511841853.4,15421,7.25,72818.3,-8.87,-36.25,-36.31,0,*51
1511841854.64,15422,7.25,72818.3,-8.85,-36.25,-36.31,0,*50
1511841855.88,15423,7.25,72820.3,-8.85,-36.19,-36.25,0,*5B
1511841857.12,15424,7.25,72814.3,-8.85,-36.19,-36.25,0,*5C
1511841858.38,15425,7.25,72816.5,-8.85,-36.25,-36.49,0,*58
1511841859.59,15426,7.25,72816.5,-8.85,-36.19,-36.19,0,*51
1511841860.83,15427,7.25,72818.8,-8.85,-36.19,-36.25,0,*5F
1511841862.06,15428,7.25,72816.0,-8.85,-36.19,-36.25,0,*50
1511841863.35,15429,7.25,72822.0,-8.87,-36.25,-36.37,0,*5F
1511841864.59,15430,7.25,72818.5,-8.85,-36.25,-36.31,0,*53
1511841865.83,15431,7.25,72812.8,-8.85,-36.25,-36.43,0,*57
1511841867.1,15432,7.25,72816.0,-8.85,-36.25,-36.61,0,*54
1511841868.36,15433,7.25,72818.3,-8.87,-36.37,-36.55,0,*53
1511841869.65,15434,7.25,72818.8,-8.87,-36.37,-36.37,0,*50
1511841870.89,15435,7.25,72818.0,-8.85,-36.25,-36.31,0,*56
1511841872.13,15436,7.25,72818.5,-8.85,-36.25,-36.43,0,*50
1511841873.37,15437,7.25,72818.0,-8.87,-36.31,-36.31,0,*53
1511841874.61,15438,7.25,72818.8,-8.87,-36.31,-36.55,0,*5E
1511841875.85,15439,7.25,72820.0,-8.85,-36.25,-36.43,0,*5F
1511841877.11,15440,7.25,72820.0,-8.87,-36.31,-36.37,0,*55
1511841878.32,15441,7.25,72818.0,-8.85,-36.19,-36.31,0,*5A
1511841879.59,15442,7.25,72818.3,-8.85,-36.25,-36.25,0,*53
1511841880.85,15443,7.25,72818.5,-8.87,-36.31,-36.37,0,*56
1511841882.12,15444,7.25,72818.5,-8.85,-36.25,-36.25,0,*55
1511841883.38,15445,7.25,72816.8,-8.87,-36.25,-36.31,0,*53
1511841884.64,15446,7.25,72822.3,-8.87,-36.31,-36.37,0,*53
1511841885.86,15447,7.25,72818.0,-8.85,-36.31,-36.43,0,*53
1511841887.07,15448,7.25,72816.0,-8.85,-36.31,-36.43,0,*5C
1511841888.34,15449,7.25,72818.3,-8.87,-36.37,-36.67,0,*5F
1511841889.62,15450,7.25,72818.3,-8.87,-36.37,-36.49,0,*5B
1511841890.91,15451,7.25,72816.3,-8.87,-36.37,-36.49,0,*5A
1511841892.18,15452,7.25,72820.5,-8.87,-36.31,-36.25,0,*55
1511841893.41,15453,7.25,72820.0,-8.87,-36.31,-36.31,0,*51
1511841894.66,15454,7.25,72820.3,-8.87,-36.31,-36.55,0,*54
1511841895.93,15455,7.25,72816.5,-8.87,-36.37,-36.55,0,*53
1511841897.19,15456,7.25,72818.0,-8.89,-36.37,-36.37,0,*5A
1511841898.45,15457,7.25,72818.5,-8.89,-36.25,-36.37,0,*58
1511841899.68,15458,7.25,72816.8,-8.89,-36.31,-36.37,0,*52
1511841900.94,15459,7.25,72818.5,-8.87,-36.31,-36.49,0,*54
1511841902.18,15460,7.25,72818.5,-8.85,-36.31,-36.49,0,*5C
1511841903.42,15461,7.25,72818.3,-8.85,-36.25,-36.31,0,*57
1511841904.68,15462,7.25,72816.3,-8.87,-36.31,-36.37,0,*55
1511841905.96,15463,7.25,72818.3,-8.87,-36.49,-36.49,0,*52
1511841907.23,15464,7.25,72820.0,-8.87,-36.37,-36.55,0,*51
1511841908.45,15465,7.25,72816.0,-8.89,-36.55,-36.73,0,*5E
1511841909.69,15466,7.25,72816.5,-8.87,-36.55,-36.73,0,*53
1511841910.95,15467,7.25,72816.5,-8.87,-36.49,-36.55,0,*5B
1511841912.2,15468,7.25,72820.8,-8.89,-36.37,-36.55,0,*53
1511841913.44,15469,7.25,72820.3,-8.89,-36.49,-36.55,0,*5B
1511841914.68,15470,7.25,72818.0,-8.89,-36.49,-36.73,0,*57
1511841915.93,15471,7.25,72816.3,-8.91,-36.61,-36.73,0,*55
1511841917.15,15472,7.25,72818.0,-8.89,-36.55,-36.73,0,*58
1511841918.41,15473,7.25,72816.0,-8.89,-36.37,-36.49,0,*54
1511841919.65,15474,7.25,72818.0,-8.89,-36.37,-36.55,0,*5E
1511841920.89,15475,7.25,72818.3,-8.89,-36.49,-36.67,0,*57
1511841922.11,15476,7.25,72822.5,-8.89,-36.55,-36.67,0,*59
1511841923.34,15477,7.25,72818.8,-8.89,-36.49,-36.73,0,*50
1511841924.62,15478,7.25,72814.0,-8.91,-36.61,-36.79,0,*56
1511841925.83,15479,7.25,72814.5,-8.89,-36.55,-36.73,0,*53
1511841927.04,15480,7.25,72816.3,-8.89,-36.67,-36.85,0,*5D
1511841928.3,15481,7.25,72820.0,-8.91,-36.73,-36.79,0,*53
1511841929.51,15482,7.25,72818.8,-8.89,-36.67,-36.73,0,*56
1511841930.72,15483,7.25,72816.5,-8.89,-36.67,-36.73,0,*57
1511841932.0,15484,7.25,72818.3,-8.91,-36.79,-36.91,0,*5A
1511841933.24,15485,7.25,72820.8,-8.91,-36.55,-36.73,0,*59
1511841934.48,15486,7.25,72816.3,-8.91,-36.43,-36.55,0,*59
1511841935.71,15487,7.25,72814.3,-8.91,-36.43,-36.43,0,*5F
1511841936.94,15488,7.25,72816.8,-8.91,-36.55,-36.73,0,*54
1511841938.2,15489,7.25,72816.3,-8.91,-36.73,-36.79,0,*5B
1511841939.43,15490,7.25,72820.8,-8.93,-36.79,-36.85,0,*58
1511841940.69,15491,7.25,72818.3,-8.91,-36.55,-36.61,0,*5F
1511841941.93,15492,7.25,72818.5,-8.93,-36.61,-36.67,0,*5F
1511841943.18,15493,7.25,72818.0,-8.93,-36.79,-36.79,0,*58
1511841944.39,15494,7.25,72818.5,-8.93,-36.67,-36.85,0,*53
1511841945.64,15495,7.25,72816.5,-8.95,-36.79,-36.85,0,*5B
1511841946.93,15496,7.25,72816.8,-8.95,-36.61,-36.79,0,*52
1511841948.18,15497,7.25,72820.0,-8.93,-36.79,-36.79,0,*5C
1511841949.46,15498,7.25,72818.0,-8.95,-36.61,-36.79,0,*5C
1511841950.73,15499,7.25,72818.5,-8.95,-36.49,-36.67,0,*58
1511841951.98,15500,7.25,72820.0,-8.95,-36.79,-36.85,0,*56
1511841953.19,15501,7.25,72816.5,-8.93,-36.85,-36.97,0,*51
1511841954.45,15502,7.25,72818.3,-8.95,-36.79,-36.85,0,*54
1511841955.66,15503,7.25,72818.8,-8.93,-36.85,-36.85,0,*50
1511841956.89,15504,7.25,72818.3,-8.95,-36.85,-36.85,0,*51
1511841958.12,15505,7.25,72820.5,-8.95,-36.97,-36.97,0,*50
1511841959.36,15506,7.25,72818.5,-8.95,-36.97,-36.97,0,*53
1511841960.59,15507,7.25,72818.0,-8.95,-37.03,-36.97,0,*5E
1511841961.81,15508,7.25,72820.0,-8.97,-36.85,-37.03,0,*50
1511841963.05,15509,7.25,72818.5,-8.97,-36.73,-36.91,0,*52
1511841964.28,15510,7.25,72818.5,-8.97,-36.85,-36.91,0,*53
1511841965.49,15511,7.25,72820.3,-8.97,-36.85,-36.85,0,*57
1511841966.74,15512,7.25,72820.3,-8.95,-36.79,-36.85,0,*55
1511841967.98,15513,7.25,72816.3,-8.97,-36.91,-37.03,0,*5F
1511841969.24,15514,7.25,72820.8,-8.99,-36.91,-37.03,0,*56
1511841970.45,15515,7.25,72816.3,-8.97,-37.03,-37.03,0,*53
1511841971.74,15516,7.25,72820.5,-8.99,-36.91,-36.91,0,*5E
1511841973.0,15517,7.25,72820.3,-8.99,-36.91,-37.03,0,*55
1511841974.23,15518,7.25,72822.3,-8.99,-37.03,-37.03,0,*50
1511841975.5,15519,7.25,72820.8,-9.03,-36.97,-37.09,0,*55
1511841976.76,15520,7.25,72818.0,-8.99,-36.73,-36.91,0,*57
1511841978.0,15521,7.25,72818.3,-8.99,-36.85,-37.03,0,*55
1511841979.26,15522,7.25,72816.3,-9.03,-36.97,-37.09,0,*5D
1511841980.5,15523,7.25,72816.0,-9.03,-36.97,-36.97,0,*5A
1511841981.72,15524,7.25,72820.3,-9.05,-36.97,-36.97,0,*5B
1511841982.98,15525,7.25,72822.0,-9.03,-36.97,-37.09,0,*5A
1511841984.2,15526,7.25,72820.3,-9.05,-36.97,-36.97,0,*59
1511841985.46,15527,7.25,72822.5,-9.03,-36.91,-36.97,0,*58
1511841986.72,15528,7.25,72818.5,-9.05,-37.09,-37.09,0,*57
1511841987.99,15529,7.25,72818.5,-9.05,-37.09,-37.09,0,*56
1511841989.28,15530,7.25,72820.0,-9.03,-37.09,-37.09,0,*58
1511841990.5,15531,7.25,72818.8,-9.05,-36.97,-36.97,0,*5F
1511841991.73,15532,7.25,72818.8,-9.07,-36.85,-36.97,0,*5D
1511841992.97,15533,7.25,72818.3,-9.07,-36.85,-36.85,0,*5F
1511841994.22,15534,7.25,72820.3,-9.07,-36.79,-36.97,0,*58
1511841995.47,15535,7.25,72816.3,-9.07,-36.79,-36.85,0,*5A
1511841996.73,15536,7.25,72820.3,-9.07,-36.67,-36.79,0,*55
1511841997.97,15537,7.25,72820.5,-9.07,-36.85,-36.97,0,*58
1511841999.2,15538,7.25,72820.5,-9.07,-36.85,-36.97,0,*57
1511842000.46,15539,7.25,72816.3,-9.07,-36.79,-36.97,0,*55
1511842001.74,15540,7.25,72818.0,-9.07,-36.79,-36.79,0,*5B
1511842002.99,15541,7.25,72816.8,-9.07,-36.79,-36.85,0,*59
1511842004.21,15542,7.25,72822.8,-9.09,-36.97,-37.03,0,*5B
1511842005.43,15543,7.25,72816.5,-9.09,-36.85,-37.03,0,*59
1511842006.65,15544,7.25,72818.8,-9.09,-36.97,-37.03,0,*5D
1511842007.87,15545,7.25,72820.3,-9.09,-36.97,-36.97,0,*50
1511842009.09,15546,7.25,72822.8,-9.09,-36.97,-36.97,0,*53
1511842010.31,15547,7.25,72822.0,-9.09,-36.85,-36.85,0,*52
1511842011.52,15548,7.25,72820.3,-9.09,-36.85,-36.85,0,*5D
1511842012.76,15549,7.25,72822.0,-9.09,-36.79,-36.85,0,*5F
1511842014.0,15550,7.25,72820.5,-9.11,-36.73,-36.85,0,*54
1511842015.25,15551,7.25,72822.8,-9.11,-36.73,-36.73,0,*5C
1511842016.49,15552,7.25,72816.3,-9.11,-36.73,-36.73,0,*5F
1511842017.76,15553,7.25,72820.3,-9.11,-36.85,-36.91,0,*5B
1511842018.98,15554,7.25,72816.5,-9.13,-36.85,-37.03,0,*54
1511842020.22,15555,7.25,72820.5,-9.11,-37.03,-37.03,0,*58
1511842021.48,15556,7.25,72822.5,-9.13,-36.91,-36.91,0,*59
1511842022.72,15557,7.25,72820.3,-9.13,-36.73,-36.91,0,*54
1511842023.93,15558,7.25,72818.5,-9.13,-36.85,-36.85,0,*57
1511842025.17,15559,7.25,72824.3,-9.13,-36.85,-36.91,0,*53
1511842026.42,15560,7.25,72820.5,-9.13,-37.03,-37.09,0,*56
1511842027.66,15561,7.25,72820.8,-9.13,-36.85,-36.91,0,*58
1511842028.87,15562,7.25,72820.8,-9.13,-36.85,-36.85,0,*5E
1511842030.09,15563,7.25,72818.8,-9.13,-36.73,-36.73,0,*5F
1511842031.31,15564,7.25,72822.3,-9.13,-36.73,-36.73,0,*58
1511842032.53,15565,7.25,72820.8,-9.13,-36.73,-36.73,0,*59
1511842033.74,15566,7.25,72818.3,-9.13,-36.73,-36.85,0,*53
1511842035.03,15567,7.25,72818.8,-9.15,-36.91,-36.91,0,*5D
1511842036.27,15568,7.25,72820.5,-9.17,-36.67,-36.67,0,*50
1511842037.54,15569,7.25,72820.5,-9.15,-36.55,-36.49,0,*5E
1511842038.78,15570,7.25,72818.8,-9.15,-36.73,-36.73,0,*5B
1511842040.04,15571,7.25,72820.0,-9.15,-36.73,-36.79,0,*50
1511842041.31,15572,7.25,72818.5,-9.17,-36.73,-36.79,0,*51
1511842042.57,15573,7.25,72818.5,-9.15,-36.73,-36.79,0,*52
1511842043.86,15574,7.25,72822.8,-9.17,-36.49,-36.49,0,*5D
1511842045.11,15575,7.25,72816.0,-9.17,-36.67,-36.55,0,*5D
1511842046.35,15576,7.25,72822.0,-9.17,-36.73,-36.73,0,*5F
1511842047.59,15577,7.25,72816.3,-9.15,-36.67,-36.73,0,*59
1511842048.84,15578,7.25,72818.0,-9.17,-36.55,-36.55,0,*51
1511842050.09,15579,7.25,72818.8,-9.15,-36.55,-36.55,0,*52
1511842051.33,15580,7.25,72818.5,-9.17,-36.31,-36.31,0,*56
1511842052.61,15581,7.25,72820.3,-9.15,-36.37,-36.37,0,*55
1511842053.86,15582,7.25,72820.5,-9.17,-36.67,-36.55,0,*55
1511842055.11,15583,7.25,72820.3,-9.15,-36.67,-36.67,0,*57
1511842056.35,15584,7.25,72820.5,-9.17,-36.31,-36.31,0,*52
1511842057.59,15585,7.25,72820.0,-9.15,-36.31,-36.19,0,*5B
1511842058.87,15586,7.25,72818.0,-9.17,-36.49,-36.37,0,*59
1511842060.16,15587,7.25,72820.5,-9.17,-36.49,-36.37,0,*58
1511842061.44,15588,7.25,72820.0,-9.15,-36.37,-36.37,0,*5C
1511842062.73,15589,7.25,72818.8,-9.15,-36.37,-36.37,0,*5D
1511842063.97,15590,7.25,72822.0,-9.15,-36.55,-36.67,0,*54
1511842065.21,15591,7.25,72822.8,-9.17,-36.67,-36.73,0,*53
1511842066.5,15592,7.25,72816.5,-9.15,-36.49,-36.49,0,*57
1511842067.74,15593,7.25,72820.5,-9.17,-36.31,-36.31,0,*54
1511842069.01,15594,7.25,72820.5,-9.17,-36.49,-36.31,0,*5C
1511842070.26,15595,7.25,72818.8,-9.17,-36.55,-36.55,0,*52
1511842071.5,15596,7.25,72820.3,-9.15,-36.73,-36.67,0,*56
1511842072.75,15597,7.25,72816.3,-9.15,-36.67,-36.67,0,*52
1511842073.99,15598,7.25,72818.0,-9.15,-36.73,-36.67,0,*58
1511842075.28,15599,7.25,72820.5,-9.15,-36.49,-36.49,0,*5C
1511842076.52,15600,7.25,72818.3,-9.17,-36.31,-36.31,0,*5D
1511842077.81,15601,7.25,72816.8,-9.17,-36.49,-36.37,0,*55
1511842079.07,15602,7.25,72820.5,-9.17,-36.55,-36.49,0,*52
1511842080.32,15603,7.25,72820.5,-9.15,-36.55,-36.55,0,*5C
1511842081.57,15604,7.25,72816.3,-9.17,-36.67,-36.55,0,*58
1511842082.83,15605,7.25,72820.5,-9.15,-36.31,-36.37,0,*5C
1511842084.12,15606,7.25,72816.5,-9.17,-36.49,-36.49,0,*5B
1511842085.35,15607,7.25,72822.8,-9.15,-36.19,-36.19,0,*58
1511842086.59,15608,7.25,72822.5,-9.17,-36.31,-36.31,0,*55
1511842087.88,15609,7.25,72818.8,-9.17,-36.49,-36.37,0,*5D
1511842089.13,15610,7.25,72820.5,-9.17,-36.67,-36.55,0,*5D
1511842090.38,15611,7.25,72822.0,-9.17,-36.55,-36.55,0,*5D
1511842091.65,15612,7.25,72816.5,-9.15,-36.49,-36.55,0,*51
1511842092.92,15613,7.25,72818.8,-9.15,-36.49,-36.55,0,*50
1511842094.2,15614,7.25,72820.8,-9.15,-36.49,-36.49,0,*5A
1511842095.49,15615,7.25,72818.5,-9.15,-36.49,-36.49,0,*5B
1511842096.74,15616,7.25,72820.0,-9.17,-36.67,-36.55,0,*5B
1511842097.99,15617,7.25,72818.8,-9.17,-36.73,-36.67,0,*5E
1511842099.25,15618,7.25,72820.5,-9.17,-36.73,-36.91,0,*58
1511842100.5,15619,7.25,72822.5,-9.17,-36.67,-36.55,0,*54
1511842101.77,15620,7.25,72822.0,-9.17,-36.73,-36.79,0,*55
1511842103.01,15621,7.25,72818.0,-9.17,-36.67,-36.73,0,*5B
1511842104.25,15622,7.25,72818.8,-9.15,-36.67,-36.67,0,*5F
1511842105.5,15623,7.25,72820.0,-9.17,-36.67,-36.67,0,*5C